Regional Weather Roundup
Issued by NWS

Home | Current Version | Previous Version | Graphics & Text | Print | Product List | Glossary Off
Versions: 1 2 3 4 5 6 7 8 9 10 11 12 13 14 15 16 17 18 19 20 21 22 23 24 25 26 27 28 29 30 31 32 33 34 35 36 37 38 39 40 41 42 43 44 45 46 47 48 49 50

000
ASUS43 KFSD 010510
RWRSD

WEATHER ROUNDUP FOR SOUTH DAKOTA
NATIONAL WEATHER SERVICE SIOUX FALLS SD
1200 AM CDT MON MAY 01 2017

NOTE: "FAIR" INDICATES FEW OR NO CLOUDS BELOW 12,000 FEET WITH NO
SIGNIFICANT WEATHER AND/OR OBSTRUCTIONS TO VISIBILITY.


SDZ001>005-009-010-012>017-010600-
NORTHWEST AND NORTH CENTRAL SOUTH DAKOTA

CITY           SKY/WX    TMP DP  RH WIND       PRES   REMARKS
BUFFALO          N/A     49  26  41 W6        29.78S
FAITH            N/A     47  22  37 E9        29.82F
MOBRIDGE       CLOUDY    41  19  41 N9        29.79F
$$

SDZ012>016-024>037-041>051-057-063-072>074-010600-
SOUTHWEST AND SOUTH CENTRAL SOUTH DAKOTA

CITY           SKY/WX    TMP DP  RH WIND       PRES   REMARKS
RAPID CTY ARPT CLOUDY    45  27  49 N7        29.84F
PIERRE         CLOUDY    40  22  48 NE8       29.78F
CUSTER         CLEAR     36  18  48 NW3       29.87F
ELLSWORTH AFB  CLOUDY    45  28  50 N3        29.83F
PHILIP         MOCLDY    37  27  67 NW5       29.82S
PINE RIDGE     CLOUDY    35  28  75 E6        29.83F
SPEARFISH      FAIR      43  23  45 CALM      29.86F
WINNER         FAIR      43  25  49 N9        29.74F
$$

SDZ004>011-016>023-039-040-010600-
NORTHEAST SOUTH DAKOTA

CITY           SKY/WX    TMP DP  RH WIND       PRES   REMARKS
ABERDEEN       CLOUDY    42  26  53 N7        29.79F
WATERTOWN      CLOUDY    37  34  89 NE18      29.71F
BROOKINGS      MIX PCPN  35  33  92 N18G30    29.66F WCI  24
SISSETON         N/A     46  30  53 NE7       29.77F
$$

SDZ017-020-022-023-036>040-048>070-010600-
SOUTHEAST SOUTH DAKOTA

CITY           SKY/WX    TMP DP  RH WIND       PRES   REMARKS
SIOUX FALLS    LGT SNOW  34  34 100 N23G35    29.58F FOG     WCI  22
HURON          CLOUDY    42  35  76 NE10      29.73F
CHAMBERLAIN    CLOUDY    43  37  77 CALM      29.74F
MITCHELL       LGT RAIN  39  37  92 N22G31    29.70F
YANKTON        CLOUDY    34  30  86 N17G24    29.63R WCI  23
$$

ABBREVIATIONS USED IN REMARKS
   TC - TEMPERATURE IN CELSIUS
  WCI - WIND CHILL INDEX
   HX - HEAT INDEX
  VSB - VISIBILITY




USA.gov is the U.S. government's official web portal to all federal, state and local government web resources and services.